Change the Weather History Date:

Wednesday, October 24, 2012

  Actual Average Record
Temperature  
Mean Temperature 72 °F -  
Max Temperature 80 °F 65 °F 82 °F (2003)
Min Temperature 64 °F 47 °F 26 °F (1999)
Cooling Degree Days 6    
Growing Degree Days 22 (Base 50)    
Moisture  
Dew Point 62 °F    
Average Humidity 70    
Maximum Humidity 90    
Minimum Humidity 54    
Precipitation  
Precipitation 0.00 in - - ()
Sea Level Pressure  
Sea Level Pressure 29.90 in    
Wind  
Wind Speed 12 mph (SSE)    
Max Wind Speed 23 mph    
Max Gust Speed 30 mph    
Visibility 10 miles    
Events      
Averages and records for this station are not official NWS values.
T = Trace of Precipitation, MM = Missing Value Source: NWS Daily Summary

Daily Weather History Graph

Daily Weather History Graph

Search for Another Location

Airport or City:

Trip Planner

Search our weather history database for the weather conditions in past years. The results will help you decide how hot, cold, wet, or windy it might be!

Date:

Astronomy

Oct. 24, 2012 Rise Set
Actual Time 7:32 AM CDT 6:28 PM CDT
Civil Twilight 7:05 AM CDT 6:54 PM CDT
Nautical Twilight 6:35 AM CDT 7:24 PM CDT
Astronomical Twilight 6:05 AM CDT 7:54 PM CDT
Moon 3:37 PM CDT (10/24) 2:36 AM CDT (10/24)
Length of Visible Light 11h 48m
Length of Day
10h 55m
Waxing Gibbous, 76% of the Moon is Illuminated
Oct 24
Waxing Gibbous
Oct 29
Full
Nov 6
Last Quarter
Nov 13
New
Nov 20
First Quarter

Hourly Weather History & Observations

Time (CDT) Temp. Dew Point Humidity Pressure Visibility Wind Dir Wind Speed Gust Speed Precip Events Conditions
12:57 AM 70.0 °F 62.1 °F 76% 29.92 in 10.0 mi SSE 10.4 mph - N/A   Mostly Cloudy
1:57 AM 66.9 °F 61.0 °F 81% 29.93 in 10.0 mi SE 6.9 mph - N/A   Clear
3:57 AM 64.9 °F 61.0 °F 87% 29.93 in 10.0 mi SE 6.9 mph - N/A   Clear
4:57 AM 64.0 °F 61.0 °F 90% 29.94 in 10.0 mi SE 5.8 mph - N/A   Clear
5:57 AM 64.0 °F 61.0 °F 90% 29.95 in 10.0 mi SE 9.2 mph - N/A   Partly Cloudy
8:05 AM 64.4 °F 60.8 °F 88% 29.98 in 10.0 mi SSE 9.2 mph - N/A   Partly Cloudy
8:57 AM 68.0 °F 62.1 °F 81% 29.96 in 10.0 mi South 13.8 mph - N/A   Clear
9:57 AM 73.0 °F 63.0 °F 71% 29.96 in 10.0 mi South 16.1 mph 24.2 mph N/A   Clear
10:57 AM 75.9 °F 63.0 °F 64% 29.95 in 10.0 mi SSW 23.0 mph 29.9 mph N/A   Clear
11:57 AM 77.0 °F 63.0 °F 62% 29.94 in 10.0 mi SSW 21.9 mph 29.9 mph N/A   Clear
12:57 PM 79.0 °F 63.0 °F 58% 29.91 in 10.0 mi SSW 19.6 mph 27.6 mph N/A   Partly Cloudy
1:57 PM 79.0 °F 63.0 °F 58% 29.89 in 10.0 mi South 15.0 mph 21.9 mph N/A   Mostly Cloudy
2:57 PM 79.0 °F 63.0 °F 58% 29.87 in 10.0 mi South 18.4 mph - N/A   Scattered Clouds
3:57 PM 78.1 °F 62.1 °F 58% 29.86 in 10.0 mi South 15.0 mph 23.0 mph N/A   Partly Cloudy
4:57 PM 79.0 °F 61.0 °F 54% 29.86 in 10.0 mi South 13.8 mph - N/A   Mostly Cloudy
5:57 PM 75.0 °F 60.1 °F 60% 29.86 in 10.0 mi South 12.7 mph - N/A   Clear
6:57 PM 73.0 °F 61.0 °F 66% 29.86 in 10.0 mi SSE 10.4 mph - N/A   Clear
7:57 PM 72.0 °F 61.0 °F 68% 29.86 in 10.0 mi SSE 12.7 mph - N/A   Clear
8:57 PM 71.1 °F 60.1 °F 68% 29.85 in 10.0 mi SSE 11.5 mph - N/A   Clear
9:57 PM 71.1 °F 60.1 °F 68% 29.84 in 10.0 mi SSE 13.8 mph 19.6 mph N/A   Clear
10:57 PM 71.1 °F 61.0 °F 70% 29.82 in 10.0 mi South 13.8 mph 24.2 mph N/A   Clear